DMSP 5D-2 F13 DEB, 42298

Orbit data source: Space-Track

DMSP 5D-2 F13 DEB, 42298 is space debris in SSO originally from a launch on Fri, 24 Mar 1995 UTC launched from the Air Force Western Test Range (AFWTR). Debris objects in space refer to the collection of defunct objects orbiting the Earth. Examples of debris include non-operational satellites, rocket bodies, and fragments generated from explosions, collisions, or faulty payload assembly.

Loading next visibility...
Identifier
42298, 1995-015HQ
Orbit
SSO
Country
Flag of USUS
Related business
Manufacturer
Unknown
Mission
Spacecraft
Bus & Motor
Unknown
Mass
Unknown
Launch date (UTC)
1995-03-24 (31 years ago)
Launch vehicle
Unknown
Launch site
Air Force Western Test Range (AFWTR)
Object type
Payload
Rocket body
Debris
Shape & HBR
Unknown shape, 0.1 m
Radar Cross Section
Small (<0.1 m²)

Expand to show TLE details & history
Last TLE update: 1 week ago

TLE from 1 week ago
0 DMSP 5D-2 F13 DEB
1 42298U 95015HQ  26132.12756705  .00002153  00000-0  19451-2 0  9995
2 42298  98.7191  99.7470 0257738 350.8453   8.8046 13.70866634528878
Epoch: 2026-05-12T03:03Z
TLE epoch observation values (Epoch: 2026-05-12T03:03:41.793Z)
Latitude
0.00008°
Longitude
-176.08355°
Altitude
811.563 km
Speed
7.542 km/s
True Right ascension
06h 38m 59s
True Declination
0° 00' 00"
Sunlit
Object was in daylight at epoch
Visualization orbit readout
Latitude
Unknown
Longitude
Unknown
Altitude
Unknown
Speed
Unknown
Apparent Right ascension
Unknown
Apparent Declination
Unknown
Sunlit
N/A
Visualization observer readout
Local Sidereal Time
09:54:23
Azimuth
Unknown
Elevation
Unknown
Doppler factor
Unknown
Orbital elements
Apogee altitude
1,183.684 km
Perigee altitude
803.684 km
Semi-major axis
7,371.821 km
Eccentricity
0.02577
Inclination
98.7191°
RAAN
99.747°
Arg. of periapsis
350.8453°
True anomaly
9.27151°
Mean anomaly
8.8046°
Eccentric anomaly
9.03654°
Mean motion
3.42911 °/min
Orbital period
104.98 mins
BSTAR
0.0019451

Documentation

Showing up to 5 results
|